[[{"header":{"parameterUnit":"m.s-1","parameterCategory":1,"la1":30.2991,"la2":30.254,"lo1":-89.0895,"lo2":-89.0444,"dy":0.0017,"dx":0.0017,"nx":28,"ny":28,"refTime":"2024-03-27T09:00:00:Z","depth":0,"parameterNumber":2,"parameterNumberName":"U-component_of_WINDS"},"data":[0,0,0,0,0,0,0,0,0,0,0,0,0,0,0,0,0,0,0,0,0,0,0,0,0,0,0,0,0,0,0,0,0,0,0,0,0,0,0,0,0,0,0,0,0,0,0,0,0,0,0,0,0,0,0,0,0,0,-0.6081,-0.6082,0,-0.6169,-0.617,-0.6171,-0.6196,-0.6195,-0.6195,-0.6194,-0.6287,-0.629,-0.6293,0,0,0,0,0,0,0,0,0,0,0,0,0,-0.5938,-0.594,-0.6081,-0.6082,-0.6083,-0.6168,-0.617,-0.6171,-0.6196,-0.6195,-0.6195,-0.6194,-0.6286,-0.629,-0.6293,0,0,0,0,0,0,0,0,0,0,0,0,0,-0.601,-0.5941,-0.6081,-0.6106,-0.6109,-0.6168,-0.617,-0.6171,-0.6196,-0.6195,-0.6194,-0.6194,-0.6285,-0.6289,-0.6294,-0.6335,0,0,-0.6307,-0.6309,0,0,0,0,0,0,0,0,-0.6006,-0.6015,-0.6101,-0.6104,-0.6108,-0.617,-0.6153,-0.6226,-0.6196,-0.6163,-0.6194,-0.6193,-0.6249,-0.6256,-0.6275,-0.634,-0.6344,-0.6307,-0.631,-0.6312,-0.6313,0,0,0,0,0,0,0,-0.6001,-0.6012,-0.6116,-0.6102,-0.6106,-0.6113,-0.6123,-0.6167,-0.6209,-0.6166,-0.6168,-0.6178,-0.6251,-0.627,-0.6277,-0.6345,-0.6307,-0.6311,-0.6314,-0.6316,-0.6449,-0.645,0,0,0,0,0,0,-0.5991,-0.6007,-0.6113,-0.6118,-0.6054,-0.6117,-0.6127,-0.6151,-0.6209,-0.6217,-0.6178,-0.6178,-0.6263,-0.6272,-0.628,-0.6333,-0.6312,-0.6316,-0.6319,-0.6448,-0.6449,-0.645,0,0,0,0,0,0,-0.5988,-0.6,-0.6109,-0.6063,-0.6078,-0.612,-0.6146,-0.6153,-0.6173,-0.6218,-0.6226,-0.619,-0.6263,-0.6274,-0.6321,-0.6337,-0.6318,-0.6322,-0.6447,-0.6448,-0.645,-0.6439,0,0,0,0,0,0,-0.5984,-0.5999,-0.6015,-0.6064,-0.608,-0.6148,-0.6147,-0.6155,-0.618,-0.6181,-0.6231,-0.6239,-0.6263,-0.6315,-0.6326,-0.6343,-0.6325,-0.6446,-0.6448,-0.6449,-0.6438,-0.644,-0.6441,0,0,0,0,0,-0.5979,-0.6009,-0.6016,-0.6028,-0.6101,-0.6149,-0.6159,-0.6185,-0.6181,-0.6197,-0.6226,-0.6237,-0.6333,-0.6319,-0.6332,-0.635,-0.6445,-0.6447,-0.6449,-0.6438,-0.644,-0.6441,0,0,0,0,0,0,-0.5963,-0.6016,-0.6024,-0.6071,-0.6105,-0.6153,-0.6175,-0.6186,-0.6223,-0.6223,-0.6255,-0.6266,-0.6311,-0.6335,-0.6319,-0.6394,-0.6389,-0.6394,-0.6376,-0.6379,-0.638,-0.6374,-0.6329,0,0,0,0,0,-0.5964,-0.5998,-0.6043,-0.608,-0.6097,-0.6133,-0.6155,-0.6172,-0.6209,-0.6224,-0.6257,-0.6293,-0.6332,-0.6356,-0.6394,-0.6441,-0.6453,-0.646,-0.6462,-0.6463,-0.6467,-0.6494,-0.6498,-0.6457,-0.6457,-0.6457,0,0,-0.5969,-0.6002,-0.6022,-0.6078,-0.6107,-0.6142,-0.6145,-0.6182,-0.6209,-0.623,-0.6277,-0.6302,-0.6344,-0.6392,-0.6415,-0.6414,-0.6481,-0.6465,-0.6466,-0.647,-0.6497,-0.6501,-0.6504,-0.6458,-0.6458,-0.6458,0,0,-0.5995,-0.6023,-0.6057,-0.6085,-0.6128,-0.6151,-0.6159,-0.6206,-0.6223,-0.6269,-0.6286,-0.6318,-0.6383,-0.6413,-0.6437,-0.6473,-0.6485,-0.6485,-0.6493,-0.6519,-0.6523,-0.6526,-0.6539,-0.6544,-0.6488,-0.6488,-0.6488,0,-0.5995,-0.6048,-0.6073,-0.611,-0.6134,-0.6153,-0.6189,-0.6215,-0.6268,-0.6285,-0.6283,-0.6365,-0.6395,-0.645,-0.6458,-0.6476,-0.6487,-0.648,-0.652,-0.6523,-0.6527,-0.654,-0.6545,-0.6488,-0.6488,-0.6488,-0.6488,0,-0.6047,-0.6083,-0.6106,-0.6155,-0.6182,-0.6218,-0.6249,-0.6274,-0.6288,-0.6311,-0.6359,-0.6395,-0.6441,-0.6455,-0.647,-0.6512,-0.651,-0.6513,-0.651,-0.653,-0.6543,-0.6548,-0.6488,-0.6488,-0.6488,-0.6488,0,0,-0.6067,-0.6129,-0.6137,-0.616,-0.6207,-0.6237,-0.6273,-0.6316,-0.6337,-0.6372,-0.6404,-0.6458,-0.6461,-0.6488,-0.6506,-0.6529,-0.6556,-0.653,-0.6531,-0.6534,-0.6606,-0.6603,-0.6609,-0.6563,-0.6564,-0.6565,-0.6602,0,-0.61,-0.6165,-0.6188,-0.6242,-0.6276,-0.6294,-0.6326,-0.6359,-0.6382,-0.6415,-0.6441,-0.6479,-0.6479,-0.6496,-0.6519,-0.6548,-0.6571,-0.6545,-0.6595,-0.6596,-0.6584,-0.6616,-0.6614,-0.6647,-0.6607,-0.6608,-0.6609,0,-0.6147,-0.6182,-0.6239,-0.6282,-0.6298,-0.6326,-0.6367,-0.6398,-0.6436,-0.6451,-0.648,-0.6497,-0.6536,-0.6529,-0.6584,-0.6566,-0.6587,-0.6604,-0.6606,-0.6613,-0.6605,-0.6624,-0.6658,-0.6664,-0.6617,-0.6616,-0.6616,0,-0.6157,-0.6218,-0.626,-0.6279,-0.633,-0.635,-0.6372,-0.6409,-0.6434,-0.647,-0.6486,-0.6527,-0.655,-0.6581,-0.6608,-0.66,-0.6661,-0.6656,-0.6676,-0.6675,-0.6689,-0.6688,-0.6728,-0.6701,-0.6701,-0.67,-0.67,0,-0.6192,-0.6226,-0.6265,-0.6291,-0.633,-0.6357,-0.6395,-0.6419,-0.6452,-0.6483,-0.6501,-0.653,-0.6564,-0.6598,-0.6619,-0.6662,-0.6672,-0.6686,-0.6691,-0.6685,-0.6683,-0.67,-0.6699,-0.6702,-0.6702,-0.6701,-0.6701,0,-0.621,-0.6238,-0.6285,-0.6329,-0.6341,-0.6368,-0.6406,-0.6432,-0.6455,-0.6495,-0.6506,-0.6542,-0.6583,-0.6612,-0.6665,-0.668,-0.6726,-0.6731,-0.6713,-0.6716,-0.6734,-0.6732,-0.6787,-0.6796,-0.6762,-0.6762,-0.6762,0,-0.6232,-0.6258,-0.6305,-0.6326,-0.6348,-0.6383,-0.6408,-0.6435,-0.646,-0.6505,-0.6526,-0.6567,-0.6602,-0.6666,-0.6698,-0.6739,-0.6746,-0.6762,-0.6752,-0.6744,-0.6747,-0.6745,-0.6749,-0.6764,-0.6764,-0.6764,-0.6764,0,-0.6266,-0.6278,-0.6313,-0.6351,-0.638,-0.6412,-0.6445,-0.6461,-0.6494,-0.6522,-0.6563,-0.6589,-0.6643,-0.6684,-0.6727,-0.6751,-0.6764,-0.6767,-0.6774,-0.6768,-0.6757,-0.6764,-0.6718,-0.6766,-0.6766,-0.6766,-0.6766,-0.6766,-0.6288,-0.6312,-0.6348,-0.6386,-0.6413,-0.6443,-0.6469,-0.6495,-0.6529,-0.6574,-0.6588,-0.6631,-0.6668,-0.6727,-0.6752,-0.6786,-0.6786,-0.6795,-0.6798,-0.68,-0.68,-0.675,-0.6794,-0.6794,-0.6794,-0.6794,-0.6794,0,-0.6324,-0.6348,-0.6382,-0.6426,-0.6456,-0.6463,-0.6499,-0.6524,-0.6561,-0.6594,-0.6627,-0.6675,-0.6714,-0.6749,-0.679,-0.6811,-0.6818,-0.6821,-0.6821,-0.6826,-0.6798,-0.6788,-0.6815,-0.6815,-0.6815,-0.6815,-0.6815,-0.6815,-0.6347,-0.6389,-0.6405,-0.646,-0.6484,-0.6525,-0.6546,-0.6573,-0.66,-0.6651,-0.6684,-0.6706,-0.674,-0.6783,-0.6821,-0.683,-0.6845,-0.6847,-0.6858,-0.6831,-0.6828,-0.6826,-0.6817,-0.685,-0.685,-0.6883,-0.6884,-0.6884]},{"header":{"parameterUnit":"m.s-1","parameterCategory":1,"la1":30.2991,"la2":30.254,"lo1":-89.0895,"lo2":-89.0444,"dy":0.0017,"dx":0.0017,"nx":28,"ny":28,"refTime":"2024-03-27T09:00:00:Z","depth":0,"parameterNumber":3,"parameterNumberName":"V-component_of_WINDS"},"data":[0,0,0,0,0,0,0,0,0,0,0,0,0,0,0,0,0,0,0,0,0,0,0,0,0,0,0,0,0,0,0,0,0,0,0,0,0,0,0,0,0,0,0,0,0,0,0,0,0,0,0,0,0,0,0,0,0,0,-6.948,-6.948,0,-6.9509,-6.9509,-6.951,-6.9431,-6.9429,-6.9426,-6.9424,-6.9449,-6.9452,-6.9454,0,0,0,0,0,0,0,0,0,0,0,0,0,-6.9353,-6.9356,-6.948,-6.948,-6.9481,-6.9509,-6.9509,-6.951,-6.9432,-6.9429,-6.9426,-6.9423,-6.9448,-6.9451,-6.9455,0,0,0,0,0,0,0,0,0,0,0,0,0,-6.9398,-6.9357,-6.948,-6.9445,-6.9443,-6.9509,-6.9509,-6.951,-6.9432,-6.9429,-6.9425,-6.9422,-6.9447,-6.9451,-6.9455,-6.9555,0,0,-6.9469,-6.947,0,0,0,0,0,0,0,0,-6.9395,-6.9402,-6.945,-6.9448,-6.9445,-6.9463,-6.9474,-6.9525,-6.9433,-6.9436,-6.9424,-6.942,-6.9456,-6.9459,-6.9473,-6.9556,-6.9557,-6.9469,-6.9472,-6.9473,-6.9475,0,0,0,0,0,0,0,-6.9392,-6.9401,-6.9491,-6.9451,-6.9448,-6.9427,-6.9429,-6.9483,-6.9466,-6.9435,-6.943,-6.9435,-6.9454,-6.9469,-6.9473,-6.9557,-6.9469,-6.9473,-6.9475,-6.9477,-6.9725,-6.9729,0,0,0,0,0,0,-6.9394,-6.9399,-6.949,-6.9492,-6.9411,-6.9432,-6.9435,-6.9461,-6.9465,-6.9462,-6.9438,-6.9431,-6.9463,-6.9468,-6.9473,-6.9591,-6.9473,-6.9478,-6.948,-6.9721,-6.9726,-6.973,0,0,0,0,0,0,-6.9392,-6.9403,-6.9489,-6.9444,-6.9453,-6.9438,-6.9468,-6.9463,-6.9478,-6.9467,-6.9463,-6.9456,-6.946,-6.9467,-6.9536,-6.9591,-6.948,-6.9483,-6.9717,-6.9723,-6.9728,-6.9828,0,0,0,0,0,0,-6.9389,-6.9403,-6.9441,-6.9446,-6.9456,-6.9553,-6.9471,-6.9466,-6.9486,-6.9478,-6.9483,-6.9481,-6.9458,-6.953,-6.954,-6.9595,-6.9487,-6.9712,-6.9719,-6.9726,-6.9819,-6.9836,-6.9851,0,0,0,0,0,-6.9384,-6.9467,-6.9444,-6.9455,-6.9504,-6.9556,-6.9562,-6.9536,-6.9491,-6.9529,-6.9522,-6.948,-6.9583,-6.9537,-6.9548,-6.9605,-6.9708,-6.9717,-6.9726,-6.9812,-6.9833,-6.985,0,0,0,0,0,0,-6.9467,-6.9467,-6.9441,-6.9528,-6.9543,-6.9543,-6.959,-6.9558,-6.9585,-6.9575,-6.954,-6.9542,-6.9617,-6.9618,-6.9567,-6.9703,-6.9638,-6.9649,-6.97,-6.9719,-6.9735,-6.9733,-6.9491,0,0,0,0,0,-6.9496,-6.954,-6.9536,-6.9613,-6.9622,-6.9605,-6.9626,-6.9605,-6.9619,-6.9624,-6.9622,-6.9636,-6.9671,-6.9695,-6.9727,-6.9819,-6.9819,-6.9864,-6.9879,-6.9892,-6.9903,-6.9953,-6.9973,-6.976,-6.976,-6.976,0,0,-6.9555,-6.956,-6.9589,-6.963,-6.9639,-6.9684,-6.9611,-6.9661,-6.9694,-6.9631,-6.9697,-6.9696,-6.9709,-6.979,-6.9826,-6.9793,-6.9962,-6.9904,-6.9914,-6.9918,-6.9964,-6.9984,-7.0002,-6.9766,-6.9765,-6.9764,0,0,-6.9685,-6.9694,-6.9759,-6.9771,-6.9787,-6.9776,-6.9792,-6.9797,-6.9795,-6.9861,-6.9815,-6.9853,-6.9914,-6.9926,-6.994,-7.0077,-7.004,-7.0088,-7.017,-7.0219,-7.0236,-7.0251,-7.03,-7.0319,-7.0099,-7.0099,-7.0099,0,-6.9756,-6.9824,-6.9796,-6.9851,-6.987,-6.9818,-6.9884,-6.9896,-6.992,-6.9934,-6.9898,-6.9975,-6.998,-7.0064,-7.0098,-7.011,-7.0127,-7.0087,-7.0236,-7.0251,-7.0264,-7.0311,-7.033,-7.0105,-7.0104,-7.0103,-7.0103,0,-6.991,-6.9958,-7.0009,-7.0038,-7.0062,-7.0122,-7.0103,-7.0131,-7.0108,-7.01,-7.0168,-7.0172,-7.0205,-7.0223,-7.02,-7.0304,-7.0284,-7.0242,-7.0176,-7.029,-7.0334,-7.0352,-7.0113,-7.0111,-7.0109,-7.0108,0,0,-7.0093,-7.0107,-7.0126,-7.0139,-7.0154,-7.019,-7.0247,-7.0281,-7.0306,-7.0325,-7.0372,-7.0427,-7.0389,-7.0405,-7.0383,-7.0426,-7.0536,-7.0379,-7.0379,-7.0409,-7.0652,-7.0684,-7.0705,-7.0511,-7.0515,-7.0517,-7.0651,0,-7.0223,-7.0324,-7.0302,-7.04,-7.0444,-7.0396,-7.0446,-7.046,-7.0455,-7.0491,-7.0483,-7.0523,-7.047,-7.048,-7.052,-7.0514,-7.0584,-7.0504,-7.0554,-7.0557,-7.0554,-7.0728,-7.0761,-7.0887,-7.0668,-7.0671,-7.0673,0,-7.0387,-7.0416,-7.052,-7.053,-7.0547,-7.0593,-7.0623,-7.0658,-7.0673,-7.0666,-7.0685,-7.0655,-7.0711,-7.0645,-7.0722,-7.0668,-7.0687,-7.0687,-7.0691,-7.0695,-7.0622,-7.0737,-7.0927,-7.0946,-7.0699,-7.0697,-7.0695,0,-7.0511,-7.0575,-7.0646,-7.0659,-7.0671,-7.0705,-7.0711,-7.0723,-7.0745,-7.0771,-7.0785,-7.0816,-7.0833,-7.0858,-7.0837,-7.0791,-7.0917,-7.0849,-7.0913,-7.0914,-7.0942,-7.094,-7.1138,-7.0954,-7.0953,-7.0953,-7.0953,0,-7.0659,-7.0725,-7.0703,-7.0746,-7.0819,-7.0792,-7.0864,-7.0864,-7.0876,-7.0918,-7.0877,-7.0917,-7.0887,-7.0924,-7.0908,-7.0975,-7.0982,-7.0978,-7.0973,-7.0982,-7.0983,-7.0994,-7.0985,-7.0958,-7.0957,-7.0956,-7.0955,0,-7.0809,-7.0797,-7.0872,-7.0879,-7.0882,-7.0935,-7.094,-7.098,-7.0973,-7.1027,-7.1038,-7.1025,-7.1067,-7.1049,-7.1092,-7.1082,-7.1168,-7.115,-7.1164,-7.1159,-7.1224,-7.1219,-7.1436,-7.1464,-7.1262,-7.1264,-7.1265,0,-7.0904,-7.0954,-7.0968,-7.0995,-7.1005,-7.1047,-7.1071,-7.1047,-7.1073,-7.1095,-7.1132,-7.1171,-7.1201,-7.1271,-7.1265,-7.1298,-7.1282,-7.1356,-7.1286,-7.1294,-7.1284,-7.1281,-7.1287,-7.137,-7.1372,-7.1374,-7.1376,0,-7.1075,-7.1067,-7.1104,-7.114,-7.117,-7.1195,-7.1217,-7.1241,-7.1218,-7.1249,-7.1293,-7.1317,-7.1363,-7.1402,-7.1432,-7.1436,-7.1403,-7.1398,-7.1414,-7.1424,-7.143,-7.1429,-7.1202,-7.1393,-7.1391,-7.139,-7.1389,-7.1388,-7.1201,-7.1244,-7.1261,-7.1304,-7.1318,-7.1341,-7.138,-7.1378,-7.1415,-7.1452,-7.1435,-7.1486,-7.15,-7.1537,-7.1547,-7.1586,-7.1556,-7.158,-7.1586,-7.1593,-7.1602,-7.1424,-7.1591,-7.159,-7.159,-7.1589,-7.1589,0,-7.137,-7.138,-7.1419,-7.1453,-7.1487,-7.1454,-7.1477,-7.1507,-7.1554,-7.1571,-7.1602,-7.1653,-7.1691,-7.1689,-7.1724,-7.1756,-7.1741,-7.1766,-7.1763,-7.1765,-7.1626,-7.1608,-7.1777,-7.1777,-7.1777,-7.1777,-7.1777,-7.1777,-7.1462,-7.1534,-7.1529,-7.1607,-7.1615,-7.1667,-7.1683,-7.1703,-7.1717,-7.1777,-7.1809,-7.1808,-7.1818,-7.1854,-7.1887,-7.1886,-7.1901,-7.1932,-7.1924,-7.1794,-7.1775,-7.1757,-7.1741,-7.1935,-7.1935,-7.2061,-7.2062,-7.2063]}]]